Flag for China Weather past 2 weeks in Shanghai, Shanghai Municipality, China

Now
66 °F

Passing clouds.


Feels Like: 66 °F
Forecast: 66 / 72 °F
Wind: 10 mph from North

Location: Shanghai Hongqiao Airport

Current Time: Jul 7, 2015 at 4:01:25 AM

Latest Report: Jul 7, 2015 at 3:00 AM


Visibility: N/A

Pressure: 29.74 "Hg

Humidity: 94%

Dew point: 64 °F

Location of ShanghaiLocation

Historic Weather in Shanghai — Graph

°F

Shanghai temperature yesterday

Maximum temperature yesterday: 70 °F (at 9:00 AM)
Minimum temperature yesterday: 64 °F (at 12:00 AM)
Average temperature yesterday: 66 °F

Past Weeks' High & Low Weather Summary

 TemperatureHumidityPressure
High97 °F (Jun 25, 11:00 AM)100% (Jun 22, 8:30 AM)29.86 "Hg (Jun 22, 8:30 AM)
Low64 °F (Jul 5, 10:30 PM)51% (Jul 3, 12:30 PM)29.42 "Hg (Jun 30, 2:00 PM)
Average76 °F85%29.67 "Hg
* Reported Jun 22 3:00 AM — Jul 7 3:00 AM, Shanghai, Weather by CustomWeather, © 2015

Note: Actual official high and low records may vary slightly from our data, if they occured in-between our weather recording intervals... More about our weather records

Advertising

Shanghai weather history for previous 24 hours

 ConditionsComfort  
Time TempWeatherWind HumidityBarometerVisibility
3:00 AM
Tue, Jul 7
66 °FPassing clouds.10 mph94%29.74 "HgN/A
2:30 AM66 °FPassing clouds.8 mph94%29.74 "HgN/A
2:00 AM66 °FPassing clouds.10 mph94%29.74 "HgN/A
1:30 AM66 °FPassing clouds.10 mph94%29.74 "HgN/A
1:00 AM66 °FPassing clouds.8 mph94%29.77 "HgN/A
12:30 AM64 °FPassing clouds.10 mph94%29.77 "HgN/A
12:00 AM64 °FLight rain. Passing clouds.8 mph94%29.77 "HgN/A
11:30 PM
Mon, Jul 6
66 °FLight rain. Passing clouds.8 mph88%29.77 "HgN/A
11:00 PM66 °FLight rain. Passing clouds.10 mph88%29.80 "HgN/A
10:30 PM64 °FPassing clouds.10 mph94%29.80 "HgN/A
10:00 PM64 °FLight rain. Passing clouds.10 mph94%29.80 "HgN/A
9:30 PM64 °FLight rain. Passing clouds.10 mph94%29.80 "HgN/A
9:00 PM64 °FLight rain. Passing clouds.8 mph94%29.80 "HgN/A
8:30 PM64 °FClear.8 mph94%29.80 "Hg10 mi
8:00 PM64 °FClear.8 mph88%29.80 "Hg10 mi
7:30 PM64 °FClear.8 mph88%29.80 "Hg10 mi
7:00 PM64 °FPassing clouds.8 mph88%29.80 "HgN/A
6:30 PM64 °FSunny.8 mph88%29.80 "Hg10 mi
6:00 PM64 °FSunny.8 mph88%29.80 "Hg10 mi
5:30 PM64 °FSunny.8 mph88%29.80 "Hg10 mi
5:00 PM64 °FPassing clouds.10 mph83%29.80 "HgN/A
4:30 PM64 °FSprinkles. Clear.13 mph83%29.80 "HgN/A
4:00 PM64 °FSprinkles. Passing clouds.13 mph88%29.83 "HgN/A
3:30 PM64 °FSprinkles. Partly sunny.10 mph88%29.83 "HgN/A
3:00 PM64 °FSprinkles. Partly sunny.8 mph94%29.83 "HgN/A
2:30 PM66 °FSprinkles. Passing clouds.10 mph88%29.83 "HgN/A
2:00 PM68 °FSunny.13 mph69%29.83 "Hg10 mi
1:30 PM68 °FPassing clouds.13 mph73%29.83 "HgN/A
1:00 PM68 °FPassing clouds.15 mph78%29.83 "HgN/A
12:30 PM70 °FPassing clouds.13 mph73%29.83 "HgN/A
12:00 PM70 °FPassing clouds.10 mph78%29.83 "HgN/A
11:30 AM70 °FLight rain. Passing clouds.8 mph88%29.83 "HgN/A
11:00 AM70 °FLight rain. Scattered clouds.8 mph88%29.83 "HgN/A
10:30 AM70 °FLight rain. Scattered clouds.6 mph88%29.83 "HgN/A
10:00 AM70 °FLight rain. Scattered clouds.3 mph88%29.83 "HgN/A
9:30 AM70 °FLight rain. Clear.6 mph88%29.83 "HgN/A
9:00 AM70 °FLight rain. Passing clouds.6 mph88%29.83 "HgN/A
8:30 AM68 °FLight rain. Scattered clouds.3 mph94%29.83 "HgN/A
8:00 AM68 °FLight rain. Scattered clouds.1 mph88%29.83 "HgN/A
7:30 AM68 °FScattered clouds.3 mph88%29.83 "HgN/A
7:00 AM66 °FSunny.1 mph94%29.83 "Hg10 mi
6:30 AM66 °FSunny.1 mph94%29.83 "Hg10 mi
6:00 AM66 °FSunny.3 mph94%29.83 "Hg10 mi
5:30 AM66 °FSunny.1 mph88%29.83 "Hg10 mi
5:00 AM64 °FLight rain. Clear.No wind94%29.83 "HgN/A
4:30 AM64 °FLight rain. Clear.3 mph94%29.83 "HgN/A
4:00 AM64 °FLight rain. Clear.3 mph94%29.83 "HgN/A
Weather by CustomWeather, © 2015

See weather overviewHow to use our weather pages